[[{"header":{"parameterUnit":"m.s-1","parameterCategory":1,"la1":30.2991,"la2":30.254,"lo1":-89.0895,"lo2":-89.0444,"dy":0.0017,"dx":0.0017,"nx":28,"ny":28,"refTime":"2026-02-01T09:00:00:Z","depth":0,"parameterNumber":2,"parameterNumberName":"U-component_of_WINDS"},"data":[0,0,0,0,0,0,0,0,0,0,0,0,0,0,0,0,0,0,0,0,0,0,0,0,0,0,0,0,0,0,0,0,0,0,0,0,0,0,0,0,0,0,0,0,0,0,0,0,0,0,0,0,0,0,0,0,0,0,2.6574,2.6574,0,2.656,2.656,2.656,2.6538,2.6537,2.6537,2.6536,2.6521,2.6521,2.6521,0,0,0,0,0,0,0,0,0,0,0,0,0,2.6582,2.6582,2.6574,2.6574,2.6574,2.656,2.656,2.656,2.6538,2.6537,2.6537,2.6536,2.6521,2.6521,2.6521,0,0,0,0,0,0,0,0,0,0,0,0,0,2.6575,2.6582,2.6574,2.6561,2.656,2.656,2.656,2.656,2.6538,2.6537,2.6537,2.6536,2.6521,2.6521,2.6521,2.6533,0,0,2.6521,2.6521,0,0,0,0,0,0,0,0,2.6575,2.6574,2.6563,2.6562,2.6561,2.655,2.6557,2.6551,2.6538,2.6546,2.6536,2.6536,2.6531,2.6531,2.6529,2.6532,2.6532,2.6521,2.6521,2.6521,2.6521,0,0,0,0,0,0,0,2.6576,2.6575,2.6569,2.6563,2.6562,2.6556,2.6554,2.6556,2.6542,2.6545,2.6544,2.6542,2.6531,2.6529,2.6529,2.6532,2.6521,2.6521,2.6521,2.6521,2.6544,2.6544,0,0,0,0,0,0,2.6578,2.6575,2.6569,2.6568,2.6567,2.6557,2.6555,2.6554,2.6542,2.654,2.6543,2.6542,2.653,2.6529,2.6528,2.654,2.6521,2.6521,2.6521,2.6543,2.6544,2.6544,0,0,0,0,0,0,2.6578,2.6578,2.657,2.6571,2.657,2.6557,2.6557,2.6554,2.6553,2.654,2.6538,2.6544,2.6529,2.6528,2.6532,2.654,2.6521,2.6521,2.6542,2.6543,2.6544,2.6566,0,0,0,0,0,0,2.6579,2.6578,2.6582,2.6572,2.657,2.6574,2.6557,2.6554,2.6553,2.6551,2.6541,2.6539,2.6529,2.6532,2.6532,2.6539,2.6521,2.6541,2.6543,2.6544,2.6564,2.6567,2.657,0,0,0,0,0,2.6579,2.6589,2.6582,2.6582,2.6575,2.6574,2.6573,2.6562,2.6554,2.6558,2.655,2.6539,2.6539,2.6533,2.6532,2.654,2.6541,2.6542,2.6544,2.6563,2.6566,2.657,0,0,0,0,0,0,2.66,2.6587,2.658,2.6586,2.6582,2.6571,2.6575,2.6566,2.6564,2.6562,2.6547,2.6545,2.6551,2.6546,2.6539,2.655,2.6538,2.654,2.6553,2.6556,2.6559,2.656,2.6521,0,0,0,0,0,2.6605,2.6606,2.6595,2.6602,2.66,2.6588,2.6588,2.6579,2.6574,2.6571,2.6564,2.6559,2.6558,2.6557,2.6555,2.6564,2.6561,2.6569,2.6572,2.6574,2.6575,2.6579,2.6582,2.6549,2.6549,2.6549,0,0,2.6616,2.6609,2.6611,2.6606,2.6601,2.6602,2.6586,2.6588,2.6588,2.6572,2.6574,2.6569,2.6562,2.6569,2.6571,2.6565,2.6584,2.6576,2.6578,2.6577,2.658,2.6583,2.6586,2.655,2.655,2.655,0,0,2.6637,2.6632,2.6637,2.6633,2.6626,2.6618,2.662,2.661,2.6606,2.6609,2.6596,2.6597,2.6596,2.6591,2.6589,2.6609,2.6598,2.6609,2.6623,2.6627,2.6629,2.6631,2.6638,2.664,2.661,2.661,2.661,0,2.6651,2.6652,2.664,2.6643,2.6641,2.6626,2.6631,2.6628,2.6621,2.662,2.6613,2.6611,2.6606,2.6611,2.6616,2.6615,2.6615,2.6609,2.663,2.6632,2.6634,2.6639,2.6642,2.6612,2.6611,2.6611,2.6611,0,2.6669,2.667,2.6675,2.6669,2.6668,2.6671,2.6661,2.6661,2.6654,2.6647,2.665,2.6644,2.664,2.6641,2.6633,2.6645,2.6641,2.6633,2.662,2.6638,2.6643,2.6646,2.6613,2.6613,2.6612,2.6612,0,0,2.67,2.6689,2.6691,2.6688,2.668,2.668,2.6684,2.6681,2.6681,2.6677,2.6679,2.6679,2.6671,2.6669,2.6661,2.6664,2.668,2.6655,2.6655,2.6659,2.6691,2.6696,2.6699,2.6674,2.6674,2.6674,2.6691,0,2.6718,2.6722,2.6713,2.6719,2.672,2.6707,2.671,2.6706,2.67,2.6699,2.6693,2.6693,2.6683,2.6681,2.6684,2.6677,2.6686,2.6676,2.6675,2.6675,2.6675,2.6702,2.6707,2.6723,2.6693,2.6694,2.6694,0,2.6738,2.6735,2.6742,2.6734,2.6734,2.6737,2.6734,2.6734,2.6729,2.6724,2.6722,2.6713,2.6716,2.6705,2.6708,2.6702,2.6701,2.6698,2.6698,2.6696,2.6684,2.6699,2.6728,2.673,2.6697,2.6697,2.6697,0,2.6758,2.6757,2.6761,2.6759,2.675,2.6752,2.6749,2.6743,2.6742,2.674,2.6739,2.6737,2.6735,2.6734,2.6724,2.6718,2.6728,2.6717,2.6724,2.6724,2.6725,2.6725,2.6753,2.6728,2.6728,2.6728,2.6728,0,2.6778,2.6782,2.677,2.6772,2.6777,2.6766,2.6771,2.6767,2.6762,2.6763,2.6752,2.6753,2.6742,2.6742,2.6735,2.6738,2.6738,2.6734,2.6732,2.6734,2.6734,2.6732,2.673,2.6728,2.6728,2.6728,2.6728,0,2.68,2.6792,2.6795,2.6787,2.6786,2.6789,2.6782,2.6784,2.6778,2.678,2.6779,2.677,2.677,2.6761,2.6758,2.6754,2.6759,2.6756,2.6761,2.6759,2.6766,2.6765,2.6792,2.6795,2.6769,2.677,2.677,0,2.6812,2.6815,2.6808,2.6808,2.6805,2.6805,2.6804,2.6795,2.6794,2.6789,2.6792,2.679,2.6789,2.6788,2.6781,2.678,2.6775,2.6785,2.6774,2.6777,2.6774,2.6773,2.6773,2.6786,2.6787,2.6787,2.6787,0,2.6834,2.683,2.6829,2.6827,2.6826,2.6824,2.6822,2.6822,2.6812,2.6812,2.6811,2.681,2.6808,2.6807,2.6804,2.68,2.6792,2.6791,2.6792,2.6793,2.6796,2.6793,2.6765,2.679,2.6789,2.6789,2.6789,2.6789,2.6851,2.6853,2.6848,2.6847,2.6845,2.6842,2.6843,2.6838,2.6838,2.6835,2.683,2.683,2.6826,2.6821,2.6818,2.6818,2.6813,2.6815,2.6816,2.6816,2.6817,2.6797,2.6818,2.6818,2.6818,2.6818,2.6818,0,2.6871,2.6868,2.6867,2.6864,2.6863,2.6857,2.6854,2.6853,2.6854,2.6851,2.6849,2.6849,2.6848,2.6841,2.684,2.6841,2.6837,2.6841,2.684,2.6839,2.6822,2.682,2.6844,2.6844,2.6844,2.6844,2.6844,2.6844,2.6881,2.6884,2.688,2.6882,2.6878,2.6879,2.6877,2.6875,2.6872,2.6872,2.6872,2.6868,2.6863,2.6861,2.686,2.6858,2.6857,2.6862,2.6859,2.6843,2.684,2.6837,2.6836,2.6862,2.6862,2.6875,2.6875,2.6875]},{"header":{"parameterUnit":"m.s-1","parameterCategory":1,"la1":30.2991,"la2":30.254,"lo1":-89.0895,"lo2":-89.0444,"dy":0.0017,"dx":0.0017,"nx":28,"ny":28,"refTime":"2026-02-01T09:00:00:Z","depth":0,"parameterNumber":3,"parameterNumberName":"V-component_of_WINDS"},"data":[0,0,0,0,0,0,0,0,0,0,0,0,0,0,0,0,0,0,0,0,0,0,0,0,0,0,0,0,0,0,0,0,0,0,0,0,0,0,0,0,0,0,0,0,0,0,0,0,0,0,0,0,0,0,0,0,0,0,-5.728,-5.7282,0,-5.7497,-5.75,-5.7502,-5.747,-5.7466,-5.7463,-5.7459,-5.768,-5.7689,-5.7698,0,0,0,0,0,0,0,0,0,0,0,0,0,-5.6835,-5.6843,-5.728,-5.7283,-5.7285,-5.7497,-5.75,-5.7503,-5.7471,-5.7466,-5.7462,-5.7457,-5.7677,-5.7688,-5.7699,0,0,0,0,0,0,0,0,0,0,0,0,0,-5.7038,-5.6846,-5.7279,-5.7295,-5.7298,-5.7496,-5.75,-5.7504,-5.7471,-5.7466,-5.746,-5.7455,-5.7673,-5.7687,-5.77,-5.7897,0,0,-5.7743,-5.7749,0,0,0,0,0,0,0,0,-5.7026,-5.7054,-5.729,-5.7294,-5.7298,-5.7451,-5.7424,-5.7635,-5.7473,-5.7406,-5.7459,-5.7453,-5.7608,-5.7627,-5.768,-5.7907,-5.7916,-5.7744,-5.7753,-5.7759,-5.7763,0,0,0,0,0,0,0,-5.7012,-5.7045,-5.7366,-5.7293,-5.7298,-5.729,-5.7313,-5.7464,-5.7535,-5.7411,-5.7409,-5.7435,-5.7609,-5.7666,-5.7685,-5.792,-5.7744,-5.7756,-5.7765,-5.777,-5.8319,-5.8325,0,0,0,0,0,0,-5.6994,-5.7033,-5.7359,-5.7372,-5.7146,-5.7303,-5.7328,-5.7407,-5.7533,-5.7547,-5.744,-5.7433,-5.7645,-5.7668,-5.7692,-5.7931,-5.7759,-5.7772,-5.778,-5.8313,-5.8321,-5.8327,0,0,0,0,0,0,-5.6985,-5.7024,-5.735,-5.7202,-5.7243,-5.7316,-5.7406,-5.7415,-5.7472,-5.7555,-5.7567,-5.7486,-5.7642,-5.7673,-5.7846,-5.7938,-5.7778,-5.7791,-5.8306,-5.8316,-5.8324,-5.841,0,0,0,0,0,0,-5.6972,-5.702,-5.7096,-5.7204,-5.7251,-5.7501,-5.7411,-5.7423,-5.7496,-5.7489,-5.7601,-5.7614,-5.764,-5.7826,-5.786,-5.7955,-5.7802,-5.8298,-5.831,-5.8321,-5.8399,-5.8421,-5.844,0,0,0,0,0,-5.6956,-5.7111,-5.71,-5.714,-5.7348,-5.7507,-5.7534,-5.756,-5.7504,-5.758,-5.7634,-5.7611,-5.7922,-5.7844,-5.7882,-5.7982,-5.8292,-5.8307,-5.832,-5.839,-5.8417,-5.8439,0,0,0,0,0,0,-5.7011,-5.7126,-5.7115,-5.7309,-5.7399,-5.7501,-5.7598,-5.7588,-5.7695,-5.7684,-5.7712,-5.7737,-5.7914,-5.7965,-5.7875,-5.8179,-5.8099,-5.8122,-5.8139,-5.8165,-5.8185,-5.8169,-5.7813,0,0,0,0,0,-5.7046,-5.7166,-5.7259,-5.7422,-5.7467,-5.7525,-5.7595,-5.7609,-5.7702,-5.774,-5.7806,-5.7897,-5.8015,-5.8093,-5.8206,-5.8406,-5.843,-5.8494,-5.8514,-5.853,-5.8549,-5.8659,-5.8689,-5.8373,-5.8373,-5.8373,0,0,-5.7119,-5.7196,-5.727,-5.7435,-5.7505,-5.7629,-5.7557,-5.7691,-5.7783,-5.776,-5.7928,-5.798,-5.8083,-5.8271,-5.8357,-5.832,-5.8642,-5.8548,-5.856,-5.8571,-5.8677,-5.8707,-5.8733,-5.8383,-5.8381,-5.838,0,0,-5.7315,-5.7385,-5.7529,-5.7602,-5.771,-5.7748,-5.7782,-5.7887,-5.7921,-5.809,-5.8076,-5.8185,-5.8388,-5.8463,-5.8528,-5.8752,-5.8736,-5.8788,-5.8894,-5.9001,-5.9026,-5.9048,-5.913,-5.9158,-5.8807,-5.8807,-5.8808,0,-5.7392,-5.7578,-5.7604,-5.774,-5.7813,-5.7798,-5.7944,-5.8012,-5.8152,-5.8203,-5.8159,-5.8414,-5.8483,-5.8688,-5.8743,-5.8796,-5.8836,-5.8776,-5.9021,-5.9043,-5.9064,-5.9142,-5.9172,-5.8813,-5.8813,-5.8812,-5.8811,0,-5.7668,-5.7797,-5.79,-5.8036,-5.8121,-5.826,-5.8307,-5.8389,-5.8395,-5.8437,-5.861,-5.8692,-5.8822,-5.8871,-5.8878,-5.9078,-5.9052,-5.9014,-5.8935,-5.91,-5.9173,-5.9203,-5.8822,-5.8819,-5.8818,-5.8816,0,0,-5.7905,-5.8054,-5.8092,-5.8154,-5.8272,-5.8373,-5.8512,-5.864,-5.871,-5.8807,-5.8924,-5.9097,-5.9063,-5.9136,-5.9151,-5.9245,-5.9419,-5.9196,-5.9198,-5.9235,-5.9645,-5.9674,-5.9708,-5.9408,-5.9413,-5.9418,-5.9637,0,-5.8114,-5.8361,-5.8388,-5.8608,-5.8728,-5.8716,-5.8837,-5.8922,-5.8966,-5.9073,-5.912,-5.9243,-5.9188,-5.9232,-5.9324,-5.9378,-5.9502,-5.9362,-5.9517,-5.9523,-5.9493,-5.9746,-5.9777,-5.9979,-5.9666,-5.9671,-5.9674,0,-5.839,-5.8496,-5.8728,-5.8831,-5.8882,-5.8991,-5.9111,-5.9214,-5.931,-5.9335,-5.9417,-5.942,-5.9563,-5.9478,-5.9675,-5.958,-5.9645,-5.9681,-5.9689,-5.9706,-5.9609,-5.977,-6.0045,-6.0076,-5.9719,-5.9716,-5.9712,0,-5.8541,-5.8741,-5.8907,-5.896,-5.9083,-5.916,-5.9215,-5.9306,-5.9382,-5.9486,-5.9536,-5.9655,-5.9721,-5.9813,-5.9847,-5.9782,-6.0044,-5.9961,-6.0069,-6.0068,-6.0125,-6.0122,-6.0415,-6.0165,-6.0165,-6.0164,-6.0164,0,-5.8772,-5.8915,-5.8976,-5.9078,-5.9238,-5.9267,-5.9424,-5.9476,-5.9557,-5.9668,-5.9664,-5.9768,-5.9807,-5.9918,-5.9946,-6.0106,-6.0135,-6.0159,-6.0165,-6.016,-6.0158,-6.0204,-6.0191,-6.0172,-6.0171,-6.0169,-6.0168,0,-5.8968,-5.9015,-5.9195,-5.9297,-5.9326,-5.9439,-5.9527,-5.9625,-5.9666,-5.9807,-5.9842,-5.9907,-6.0037,-6.008,-6.0237,-6.0256,-6.0443,-6.0436,-6.0411,-6.0412,-6.0518,-6.0508,-6.0853,-6.09,-6.0618,-6.062,-6.0622,0,-5.9113,-5.9223,-5.9337,-5.9412,-5.947,-5.959,-5.9667,-5.97,-5.9781,-5.9899,-5.9983,-6.0112,-6.0218,-6.0426,-6.0487,-6.0607,-6.0604,-6.0716,-6.0622,-6.0614,-6.0607,-6.06,-6.0612,-6.0734,-6.0737,-6.074,-6.0742,0,-5.9365,-5.9383,-5.9495,-5.9616,-5.9708,-5.9804,-5.9897,-5.9958,-6.0005,-6.0096,-6.0229,-6.0311,-6.0472,-6.06,-6.0723,-6.0779,-6.0769,-6.0771,-6.0802,-6.0799,-6.0781,-6.0793,-6.046,-6.0763,-6.0761,-6.0759,-6.0758,-6.0757,-5.9541,-5.9639,-5.9735,-5.9859,-5.9933,-6.002,-6.0118,-6.0171,-6.0284,-6.0418,-6.043,-6.0574,-6.0668,-6.0832,-6.0894,-6.1007,-6.0975,-6.102,-6.1032,-6.1043,-6.1052,-6.0762,-6.1029,-6.1028,-6.1028,-6.1027,-6.1027,0,-5.9794,-5.9855,-5.997,-6.0101,-6.0199,-6.0181,-6.0283,-6.0366,-6.0493,-6.0582,-6.0686,-6.084,-6.0964,-6.1035,-6.116,-6.1236,-6.1235,-6.1268,-6.1263,-6.1277,-6.1073,-6.1034,-6.1267,-6.1267,-6.1267,-6.1267,-6.1267,-6.1267,-5.9938,-6.0102,-6.0131,-6.0331,-6.0391,-6.0533,-6.0593,-6.0673,-6.0744,-6.0916,-6.102,-6.1066,-6.1148,-6.1278,-6.1392,-6.1409,-6.1456,-6.1492,-6.1507,-6.1315,-6.1291,-6.1267,-6.1231,-6.1502,-6.1502,-6.1702,-6.1703,-6.1705]}]]